GEFSMW_con_maxscp_354.txt.gz
SCP
1 1 1 2 2 3 3 2 2 3 3 4 4 4 4 3 2 2 2 2 2 2 2 2 3 3 3 3 3 3 3 3 3 3 2 1 1 1 1 1 1 1 1
2 2 1 2 3 3 2 2 3 3 3 4 4 4 4 3 2 2 2 2 2 2 2 2 2 3 3 3 3 3 3 3 3 3 3 2 1 1 1 1 1 1 1
2 2 2 2 3 2 2 2 3 3 4 4 4 4 4 4 3 2 2 2 1 1 1 1 2 2 2 3 3 3 3 3 3 3 3 2 1 1 1 1 1 1 1
2 3 3 3 3 2 2 2 2 3 4 4 4 4 4 4 4 3 2 1 1 2 1 1 1 2 2 2 2 2 2 2 2 2 2 2 2 2 2 2 1 1 1
2 2 3 3 3 3 2 2 3 3 4 4 5 5 5 5 4 4 2 1 2 2 1 1 1 2 2 2 2 2 2 2 2 2 2 2 2 2 2 1 1 1 1
2 2 3 4 4 4 4 4 5 5 5 4 5 6 6 5 5 5 3 2 2 2 2 2 2 2 2 2 2 2 2 2 2 2 2 2 2 2 2 1 1 1 1
2 2 3 4 4 5 6 7 7 6 5 4 5 5 6 6 6 5 5 4 3 3 3 3 3 3 3 3 3 3 3 3 3 3 3 3 3 3 3 2 1 1 1
2 2 3 3 3 4 4 5 5 5 5 4 4 5 6 6 5 5 5 4 4 4 4 4 4 4 4 4 4 5 5 4 4 4 4 3 4 4 3 2 1 1 1
2 2 2 2 2 2 2 2 3 4 4 4 4 5 5 6 6 6 5 5 5 5 5 5 5 5 5 6 7 8 7 5 4 4 4 3 4 4 3 2 1 1 1
3 2 2 2 2 2 2 2 2 3 4 4 4 4 5 6 7 7 6 6 6 6 6 6 6 6 7 8 10 10 8 6 6 5 4 4 3 3 2 2 2 2 2
3 2 2 2 2 3 3 3 3 3 4 4 5 5 6 7 8 8 7 7 8 7 7 7 7 8 8 9 10 9 8 7 6 5 5 4 4 3 2 2 2 3 3
3 3 3 3 3 4 4 4 4 4 5 5 5 5 5 6 6 6 7 7 8 7 7 7 8 9 9 9 9 9 8 8 7 6 5 4 4 3 3 2 3 3 4
3 4 4 5 4 4 4 4 4 5 5 5 5 5 5 5 5 5 6 7 7 7 7 8 8 9 9 10 10 10 9 9 9 8 6 5 4 4 3 3 3 3 3
5 5 6 6 5 4 4 4 3 4 4 5 5 4 4 5 5 6 6 7 7 8 8 8 8 9 9 10 10 10 10 10 10 9 7 6 5 4 4 4 4 3 3
6 6 6 5 4 4 3 3 3 3 4 4 4 4 4 5 6 6 7 7 8 8 8 8 8 9 9 9 9 10 10 10 10 9 8 6 5 4 3 3 3 4 4
5 4 4 4 4 3 3 3 3 3 4 4 4 5 5 6 6 7 7 8 8 8 9 9 9 8 7 7 7 8 9 10 10 9 8 6 5 3 2 2 2 3 3
3 3 3 3 3 3 4 4 4 4 4 4 5 5 5 6 6 6 7 8 8 9 9 9 9 8 7 6 5 6 8 9 10 9 8 7 5 3 2 2 2 2 2
3 3 3 3 3 4 4 4 4 4 4 4 5 5 5 6 6 6 6 7 8 8 9 9 9 9 8 6 4 4 7 9 9 9 8 7 5 3 3 3 3 3 4
3 4 4 5 5 4 4 4 4 4 4 4 5 5 5 5 5 5 5 6 7 8 9 9 9 10 9 7 4 4 6 9 9 9 7 6 4 3 2 3 4 5 5
4 4 5 6 6 5 5 4 4 4 4 4 5 5 5 5 4 4 4 5 6 7 8 8 9 9 8 7 4 4 7 10 9 8 5 4 2 2 1 2 4 5 5
5 5 6 7 6 6 6 6 6 6 5 5 5 5 5 4 4 4 5 5 6 6 6 7 8 8 7 5 3 3 7 9 8 6 4 3 2 1 1 1 3 3 4
7 6 6 6 6 6 6 7 8 9 8 7 7 6 5 5 4 5 5 5 5 5 5 5 6 6 5 4 2 2 4 5 5 4 4 3 2 1 0 1 1 2 2
11 8 7 6 6 6 6 7 9 10 11 11 10 10 8 7 6 6 6 5 5 4 4 5 6 6 5 4 3 2 1 2 3 4 3 2 1 1 0 0 0 1 1
12 10 7 6 7 7 7 8 8 9 12 13 14 13 12 11 10 9 7 7 6 6 6 6 7 7 6 6 5 4 2 2 2 3 3 2 1 1 1 1 1 1 1
9 9 7 6 7 8 10 10 9 9 11 13 14 13 13 12 11 11 9 7 6 6 6 6 6 6 6 5 5 4 4 3 3 4 5 4 3 2 2 2 2 2 1
7 8 7 7 6 8 11 13 11 9 9 11 11 12 11 11 12 11 9 6 6 5 4 4 5 5 5 4 4 4 4 4 4 5 6 5 4 3 3 3 2 2 1

GEFSMW_con_maxscp_360.txt.gz
SCP
3 4 5 6 9 14 19 17 13 10 7 5 4 4 4 3 2 3 3 4 3 3 3 2 2 2 2 2 2 2 2 2 2 2 3 3 3 3 2 2 3 3 2
4 4 5 7 11 15 17 16 13 9 7 5 4 4 4 4 3 3 4 5 4 4 3 2 2 2 2 2 2 2 2 2 2 3 4 5 4 2 1 2 2 2 2
4 4 5 7 10 13 13 13 11 8 7 6 5 4 4 4 4 4 5 5 5 5 4 3 3 3 3 3 3 3 3 2 3 3 5 5 4 2 1 1 1 2 2
5 4 4 5 7 9 10 11 10 8 7 7 6 5 4 4 4 5 5 6 6 6 5 5 5 5 4 4 4 4 4 3 3 4 5 4 3 1 1 1 2 2 2
5 5 4 4 5 7 9 10 10 8 7 7 7 6 5 5 5 5 5 6 6 6 6 6 7 7 6 5 5 5 5 5 4 4 4 4 3 2 1 1 2 2 2
5 5 5 4 4 6 7 9 11 10 7 6 7 6 6 6 6 5 6 6 6 6 6 7 8 8 7 6 6 5 5 6 5 4 4 5 4 3 2 2 2 2 2
5 6 7 7 7 7 8 11 13 12 9 7 6 7 7 7 7 7 7 6 5 5 6 7 8 8 8 7 6 6 5 5 5 5 4 4 5 4 2 2 2 2 2
5 6 8 9 9 9 9 11 12 12 10 8 7 7 8 7 7 7 7 7 6 6 7 9 10 10 10 9 7 7 6 5 4 4 4 4 4 3 3 2 2 2 2
5 5 6 7 8 8 8 8 9 10 9 8 7 7 7 7 7 8 10 10 9 8 9 12 13 14 12 10 9 8 6 4 4 4 4 4 4 4 3 3 3 2 2
5 5 5 5 6 6 6 6 7 8 8 7 6 6 6 8 8 9 11 11 10 9 10 12 14 13 11 9 8 7 6 4 4 4 4 4 4 4 3 3 3 3 3
4 4 5 6 6 6 5 5 6 7 8 7 6 6 6 7 8 9 10 10 9 8 9 11 12 10 8 7 7 6 6 5 5 5 5 5 4 4 3 3 3 4 4
3 4 6 8 9 8 7 6 7 7 7 7 7 6 6 6 6 7 8 8 9 9 9 11 12 11 9 8 8 8 7 8 8 8 7 7 6 6 5 4 3 4 4
4 5 7 9 10 9 8 8 8 8 8 8 7 6 6 6 6 7 7 8 9 10 10 11 13 13 12 11 11 10 10 10 11 11 11 11 10 8 7 5 4 4 4
6 7 8 9 9 8 9 10 10 9 9 8 7 6 6 6 7 7 7 7 8 9 10 11 12 13 13 13 13 12 12 13 13 14 15 14 13 11 9 7 5 4 3
7 7 8 8 7 7 8 10 11 11 10 8 7 6 6 6 7 7 7 7 8 8 9 10 10 11 11 11 11 11 12 14 15 16 17 17 15 13 11 9 7 5 4
7 7 6 6 6 6 7 9 9 10 10 9 8 7 8 7 7 6 6 7 8 9 9 10 9 9 8 6 6 7 10 12 15 16 17 17 15 14 12 10 7 6 5
6 5 6 6 6 6 6 7 7 8 9 10 9 10 10 10 8 7 7 8 9 9 9 9 9 8 7 5 3 4 6 10 13 16 17 16 14 14 13 11 8 6 5
5 5 5 6 8 7 7 7 6 6 7 9 10 11 12 11 10 8 8 9 10 9 9 8 8 8 7 5 3 3 4 8 10 13 15 16 15 14 13 13 11 9 7
5 5 5 7 9 10 9 8 7 7 6 8 10 12 12 12 10 9 8 9 9 9 8 7 7 7 7 6 4 3 5 7 9 10 12 13 14 13 12 13 13 11 8
6 6 6 7 11 14 13 11 9 7 6 7 10 12 12 11 10 10 9 10 10 10 9 7 6 6 6 6 4 3 5 8 9 10 11 11 10 9 8 10 13 12 9
6 6 6 6 10 14 16 14 13 11 9 8 9 10 10 9 8 9 10 11 11 10 9 7 6 5 5 5 4 3 4 7 9 10 11 10 8 5 4 6 8 8 7
6 6 6 7 8 11 13 14 15 14 12 10 10 9 8 6 6 7 8 9 10 9 8 7 6 5 5 5 4 2 2 4 7 8 9 8 6 3 1 2 3 4 3
7 7 7 8 8 9 11 12 14 14 14 13 11 10 8 6 6 6 7 7 8 8 7 7 7 6 6 6 4 2 1 2 4 5 5 5 4 2 1 1 1 1 1
8 8 7 8 10 12 12 12 13 14 14 14 13 11 9 8 7 8 8 8 8 8 9 9 8 8 7 7 6 4 3 2 2 3 3 3 2 2 2 2 2 2 2
10 9 8 9 11 14 14 13 13 14 15 15 13 12 10 8 8 8 9 8 8 8 10 10 9 8 8 7 7 6 5 4 3 3 4 4 3 3 4 4 4 4 4
10 10 9 9 12 14 14 13 12 13 14 15 14 12 10 8 8 9 10 10 8 7 9 11 10 8 8 7 6 5 5 4 4 4 5 5 5 5 5 4 5 5 5

GEFSMW_con_maxscp_366.txt.gz
SCP
1 1 2 3 3 3 2 2 1 1 1 1 1 2 1 1 1 1 1 1 1 2 2 1 1 1 1 1 1 1 1 1 1 1 1 1 1 1 1 1 1 1 1
2 2 2 3 3 3 3 3 2 2 2 1 1 1 1 1 1 1 1 1 1 2 2 2 2 1 1 1 1 1 1 1 1 1 1 1 1 0 0 0 1 1 1
3 3 3 3 3 4 4 4 3 3 2 2 1 1 1 1 1 1 1 1 1 2 2 2 2 2 2 2 2 2 2 2 1 2 1 1 1 0 0 0 0 0 0
3 3 3 3 3 4 4 4 5 4 3 2 2 2 2 2 1 1 1 1 1 1 2 2 2 2 2 2 3 3 2 2 2 2 2 2 1 1 0 0 0 0 0
3 2 2 2 3 3 4 5 6 6 4 3 2 2 2 2 2 2 1 1 1 1 1 2 2 2 3 3 3 3 3 3 3 3 2 2 2 1 1 0 0 0 0
3 3 2 2 3 3 4 6 8 7 5 3 2 2 2 2 2 2 2 2 2 2 2 2 2 2 3 3 3 3 3 3 3 3 3 2 2 2 1 1 1 0 0
4 4 4 3 3 4 5 6 8 8 6 4 3 2 2 2 3 2 2 2 2 2 2 2 2 2 2 3 3 3 3 3 3 2 2 2 2 2 2 2 1 1 0
6 6 6 5 5 5 5 6 8 9 8 6 4 3 3 3 3 3 3 3 3 3 3 3 2 2 2 2 2 2 2 2 2 2 2 2 2 2 2 2 2 1 1
6 6 6 6 6 6 5 6 7 9 9 8 6 4 3 3 3 3 4 4 4 4 3 3 3 3 3 2 2 2 2 2 2 2 2 2 2 2 2 2 2 1 1
4 5 5 6 6 6 6 6 6 8 9 9 7 5 4 3 3 3 4 5 5 5 4 4 4 4 4 4 3 3 2 2 2 2 2 2 2 2 2 2 2 2 2
3 3 4 5 5 6 6 6 6 7 8 9 8 7 5 4 3 3 3 4 5 5 5 4 4 5 5 5 5 4 3 3 3 3 3 2 2 2 1 1 2 2 2
2 3 3 4 4 5 6 6 6 6 6 7 8 8 6 5 4 3 3 3 3 4 4 4 4 5 5 6 7 6 6 5 5 5 5 4 3 3 2 2 1 1 1
2 3 3 4 4 5 6 6 5 5 4 5 7 8 7 6 5 4 4 3 3 3 3 4 4 4 5 6 7 8 9 9 9 9 8 7 6 5 5 4 3 2 1
3 3 4 5 6 6 6 4 4 4 4 4 6 8 8 7 6 6 5 4 4 3 3 3 3 3 4 5 6 8 10 12 12 12 12 11 9 8 8 7 6 4 3
5 5 4 5 5 5 4 3 3 3 4 4 5 7 8 8 7 7 6 5 4 4 3 4 4 3 3 4 5 8 10 12 13 13 13 12 11 10 10 10 9 7 6
9 7 5 5 4 3 2 3 3 3 3 4 4 5 7 8 8 7 7 6 5 4 4 3 4 4 4 3 4 6 8 10 11 11 12 12 11 11 10 10 9 8 8
11 8 6 6 6 4 3 2 2 3 3 4 4 5 6 6 7 7 7 6 5 5 4 4 4 4 3 3 3 4 6 7 8 9 10 10 10 10 10 10 9 8 8
6 6 5 6 7 6 4 3 2 3 3 4 4 4 5 5 5 6 6 6 5 5 5 5 4 4 3 2 2 2 3 5 6 6 7 8 9 9 10 10 10 9 8
4 4 4 4 5 5 4 3 3 3 4 4 4 4 4 4 4 4 5 5 5 5 5 5 5 5 4 3 1 1 2 3 4 4 5 6 7 7 8 9 10 10 9
4 3 3 4 4 5 4 4 4 4 4 5 5 5 5 4 4 4 4 4 4 4 4 4 5 5 4 3 2 1 2 3 3 4 4 4 4 4 5 6 8 8 7
4 3 4 4 5 6 5 4 4 4 5 6 7 7 6 5 4 4 4 4 4 4 4 3 4 4 4 3 2 2 2 3 3 3 3 3 2 2 2 3 4 5 5
4 4 4 5 6 6 6 5 4 5 5 6 7 8 8 6 5 4 4 5 5 5 4 3 3 4 4 4 2 1 1 2 3 3 3 2 2 1 1 1 1 2 2
5 5 5 6 6 6 6 5 5 5 5 6 6 7 8 7 4 4 4 5 5 5 5 4 4 5 6 5 3 2 1 1 2 3 3 2 1 1 1 0 0 1 1
6 7 7 7 6 6 5 5 5 5 5 5 7 9 9 7 5 4 4 4 4 5 5 4 4 5 7 7 6 4 2 2 2 2 2 2 1 1 1 1 1 1 1
9 9 8 7 6 6 5 5 5 5 6 7 9 11 12 9 6 5 4 3 2 3 3 3 4 4 5 6 6 5 3 3 2 2 2 2 2 2 2 1 1 1 1
10 10 9 7 6 6 6 5 5 5 6 8 11 13 13 10 7 5 4 3 2 2 2 2 3 3 3 4 5 4 3 3 3 2 2 2 2 2 2 2 2 1 1

GEFSMW_con_maxscp_372.txt.gz
SCP
1 1 1 1 1 1 1 1 2 2 2 1 1 1 1 1 1 1 1 2 2 2 2 2 2 2 2 2 2 2 2 2 1 1 1 1 1 1 1 1 1 1 1
1 1 1 1 1 1 1 1 2 2 1 1 1 1 1 1 2 2 2 2 2 2 3 3 3 3 2 2 2 2 2 2 1 1 1 1 1 1 1 1 1 1 1
1 1 1 1 1 1 1 2 2 1 1 1 1 1 1 1 1 1 1 2 2 3 3 3 3 3 3 3 2 3 2 2 2 2 2 1 1 1 1 0 0 1 1
1 1 1 2 2 2 2 2 2 1 1 1 1 1 1 1 1 1 1 1 2 2 3 3 3 3 3 3 3 3 3 2 2 2 2 2 1 1 1 1 0 0 0
1 1 2 3 3 3 3 3 2 2 1 1 1 1 1 1 1 1 1 1 1 1 2 2 3 3 3 3 3 3 2 2 2 2 2 2 2 2 1 1 0 0 1
1 2 3 3 3 3 3 3 3 2 2 1 1 1 1 1 1 1 1 1 1 1 1 2 2 2 2 2 2 2 2 2 2 2 2 2 2 2 1 1 1 1 1
2 2 3 3 4 4 4 4 3 3 2 2 1 1 1 1 1 1 1 2 2 2 1 2 2 2 2 2 2 2 1 1 1 2 2 2 2 2 2 1 1 1 1
2 2 3 3 3 3 4 4 4 3 2 2 2 2 2 1 1 1 1 2 2 2 2 2 2 2 3 2 2 2 1 1 1 1 2 2 2 2 2 2 1 1 1
2 2 2 3 3 4 4 3 3 3 3 2 2 2 2 2 2 1 1 2 2 2 3 2 3 3 3 3 3 2 2 1 1 1 1 1 1 1 2 1 1 1 1
1 1 2 3 4 4 3 3 2 3 3 3 2 2 2 3 2 2 2 2 2 3 3 3 3 3 3 4 4 4 3 2 2 1 1 1 1 1 1 1 1 1 1
1 1 1 2 3 3 3 3 2 3 3 3 2 2 2 2 3 3 3 3 3 3 4 4 4 4 4 5 5 5 4 3 3 2 2 1 1 1 1 1 1 1 1
1 1 1 2 2 2 3 3 3 2 3 2 2 2 2 2 3 4 3 3 3 4 4 5 5 5 5 5 6 6 6 5 4 4 3 3 2 1 1 1 1 1 1
1 1 1 2 2 2 2 2 2 2 2 2 2 2 2 2 3 4 4 4 4 4 4 5 5 5 5 6 6 7 7 7 6 5 5 4 4 3 3 3 3 2 2
1 1 1 1 2 2 1 1 1 2 2 1 1 1 2 2 3 4 4 5 4 4 4 5 5 5 6 6 7 7 8 8 7 7 6 6 6 5 5 5 5 5 4
2 1 1 1 2 2 2 1 1 1 1 1 1 1 1 2 2 3 4 5 5 5 5 5 5 5 5 5 6 7 7 7 7 7 7 7 7 7 7 8 8 8 7
2 2 1 1 1 2 2 2 2 2 1 1 1 1 1 1 2 2 3 4 5 6 6 6 6 5 5 4 4 5 6 6 6 6 6 7 7 7 8 8 9 9 9
2 2 2 1 1 2 2 3 3 2 2 2 1 1 1 2 2 2 2 3 5 6 7 7 7 6 5 4 3 3 4 5 5 5 5 5 6 6 7 7 7 8 8
2 2 3 2 2 2 3 3 3 3 3 2 2 2 2 2 2 2 2 3 4 5 7 7 8 7 6 4 2 2 3 4 4 4 4 5 5 6 6 7 7 7 7
2 3 3 3 4 4 3 3 3 3 3 2 2 2 2 2 2 3 3 3 3 4 5 6 7 7 6 4 2 2 3 4 4 4 4 5 5 5 5 6 7 7 7
2 3 3 3 3 4 3 3 3 3 2 2 2 2 3 3 3 3 4 4 4 4 4 5 6 6 6 5 3 2 2 3 4 4 4 4 4 3 3 4 5 6 6
2 2 3 2 2 2 3 3 2 2 2 2 2 3 3 3 3 3 4 5 5 5 5 5 5 5 5 4 2 1 2 3 3 4 4 3 3 2 1 2 4 4 4
2 2 2 2 2 2 2 2 2 2 2 2 2 3 3 3 3 4 5 5 5 5 5 4 4 4 3 3 1 1 1 1 2 2 3 3 2 1 1 1 2 3 2
3 2 2 2 2 3 3 3 2 2 2 3 2 3 3 4 4 5 5 5 4 4 4 3 3 2 2 2 2 1 0 0 1 1 2 2 1 1 1 1 1 2 2
4 3 2 2 3 3 3 3 3 3 3 3 3 3 4 5 4 4 4 4 4 3 3 3 2 2 3 3 3 2 1 1 1 1 1 1 1 2 3 3 2 2 3
4 4 3 3 3 4 4 4 4 4 4 4 4 4 5 5 5 4 3 3 3 3 2 2 2 2 2 2 2 2 2 2 1 1 1 1 2 4 6 6 5 4 4
5 4 3 3 4 4 4 4 4 4 4 4 4 5 5 6 5 4 3 3 3 2 2 2 2 2 2 1 1 1 1 1 1 1 2 1 2 5 8 9 8 6 5